Temperature
23 24 23 23 23 24 23 23 23 23 23 23 22 22 22 21 21 21 21 21 21 20 20 19 19 18 18 18 18 17 17 17 17 16 16 16 15 15 15 15 15 15 15 14
23 23 23 23 23 23 23 23 23 23 23 23 22 22 22 22 21 20 21 21 20 20 20 19 18 18 18 18 17 17 17 17 16 16 16 16 16 15 15 15 15 15 14 14
23 23 22 22 22 22 23 23 23 22 22 23 22 22 22 22 21 20 20 20 20 19 19 19 18 18 17 17 17 17 17 17 16 16 16 15 15 15 15 15 15 14 14 14
23 22 22 22 22 22 22 23 22 22 22 22 22 22 22 22 21 21 20 19 19 19 19 18 18 17 17 17 17 17 16 16 16 16 16 15 15 15 15 15 14 14 14 14
22 22 22 22 22 22 22 22 22 22 22 22 22 22 22 22 21 21 20 19 18 18 18 17 17 17 17 17 16 16 16 16 16 16 16 15 15 15 15 14 14 14 14 14
22 22 22 22 22 22 22 22 22 22 23 22 22 22 22 22 21 21 20 19 18 17 17 17 16 16 16 16 16 16 16 16 16 15 15 15 15 15 15 14 14 14 14 14
22 22 22 22 22 22 22 22 22 22 22 22 22 21 21 21 20 20 19 18 17 17 17 16 16 16 16 16 16 15 15 15 15 15 15 15 15 15 14 14 14 14 14 13
21 21 21 21 22 22 22 22 21 21 21 22 21 21 21 20 19 19 18 18 17 16 16 16 15 15 15 15 15 15 15 15 15 15 15 15 14 14 14 14 14 14 13 13
21 21 21 20 21 22 22 22 22 21 21 21 21 21 20 20 19 19 18 17 17 16 16 15 15 15 15 15 15 15 15 15 15 14 14 14 14 14 14 14 14 13 13 13
21 21 21 20 21 20 21 22 21 21 20 20 21 21 21 20 19 19 18 18 17 16 16 15 15 15 15 15 14 14 14 14 14 14 14 14 14 13 13 13 13 13 13 13
20 20 20 20 20 21 20 20 21 21 20 20 20 21 21 20 20 19 18 17 17 16 15 15 14 14 14 14 14 14 14 14 14 14 14 13 13 13 13 13 13 13 13 13
19 20 20 20 20 19 20 21 21 20 20 20 20 20 20 20 19 19 18 17 16 16 15 15 14 14 14 14 14 14 14 14 13 13 13 13 13 13 13 13 12 12 12 12
19 19 19 19 19 19 19 19 19 20 20 19 19 20 20 19 19 18 17 16 16 15 15 14 14 13 13 13 13 13 13 13 13 13 13 13 13 13 12 12 12 12 12 12
18 19 19 19 19 19 19 18 18 19 19 19 19 20 20 19 18 17 17 16 16 15 15 14 13 13 13 13 13 13 13 13 13 13 12 12 12 12 12 12 12 11 11 11
18 19 19 18 18 18 18 18 17 18 19 19 19 19 19 19 18 17 16 16 15 15 14 14 13 13 13 13 12 12 12 12 12 12 12 12 12 12 12 11 11 11 11 11
18 18 18 18 17 17 17 17 17 17 18 18 18 18 19 18 17 16 16 15 15 14 14 13 13 13 12 12 12 12 12 12 12 12 12 12 12 11 11 11 11 11 11 11
17 17 17 18 17 17 17 18 17 17 17 18 18 18 18 17 17 16 15 15 14 14 13 13 13 12 12 12 12 12 12 12 11 11 11 11 11 11 11 11 11 10 10 10
17 17 17 17 17 16 18 17 17 17 17 17 17 17 17 17 16 15 14 14 14 13 13 12 12 12 12 12 12 11 11 11 11 11 11 11 11 11 10 10 10 10 10 10
16 16 16 16 17 17 17 17 16 16 16 17 17 16 16 15 15 15 14 13 13 12 12 12 12 11 11 11 11 11 11 11 11 10 10 10 10 10 10 10 10 10 9 9
15 16 16 16 16 16 17 16 15 16 16 16 16 16 15 15 16 16 13 12 12 12 12 11 11 11 11 11 11 11 10 10 10 10 10 10 10 10 10 9 9 9 9 9
15 15 15 16 16 17 17 15 15 15 16 15 14 14 14 15 15 14 12 12 11 11 11 11 11 11 10 10 10 10 10 10 10 9 9 9 9 9 9 9 9 9 9 8
16 15 15 16 15 16 15 14 15 16 15 14 14 13 13 13 12 12 11 11 11 11 10 10 10 10 10 10 10 10 9 9 9 9 9 9 9 9 9 9 8 8 8 8
15 16 16 16 16 15 14 14 14 13 13 13 13 12 12 12 12 11 11 11 11 10 10 10 10 10 10 9 9 9 9 9 8 8 8 8 8 8 8 8 8 8 8 8
15 14 14 14 15 14 13 13 12 12 12 12 12 11 11 11 11 11 10 10 10 10 10 9 9 9 9 9 9 9 8 8 8 8 8 8 8 8 8 8 8 7 7 7
14 13 14 14 14 13 13 12 12 11 11 11 11 11 11 11 10 10 10 10 10 9 9 9 9 8 9 9 8 8 8 8 8 8 7 7 7 7 7 7 7 7 7 7
13 13 14 14 14 14 14 13 12 11 11 11 11 11 10 10 10 10 9 9 9 9 9 8 8 8 8 8 8 8 8 8 7 7 7 7 7 7 7 7 7 7 7 7
Wind_Speed
3 5 5 4 4 4 4 5 5 3 2 3 4 4 3 3 3 4 5 5 4 4 3 3 4 5 5 6 6 6 6 6 5 5 5 4 4 3 3 2 2 2 2 2
5 4 3 2 3 5 6 7 6 3 2 4 4 4 4 3 4 4 4 4 4 3 3 2 4 4 5 6 6 6 6 6 6 5 5 4 4 3 3 2 2 2 2 2
5 1 2 4 4 6 7 7 6 5 4 5 5 6 5 3 3 3 3 4 3 3 3 2 3 4 4 5 6 5 6 6 6 6 5 4 4 3 3 3 3 3 3 3
3 2 4 5 5 6 6 4 6 7 7 5 6 6 4 4 3 3 3 2 2 2 2 1 1 2 3 4 5 6 6 6 6 7 6 6 5 5 5 4 3 3 4 3
2 3 4 5 4 6 4 3 6 8 8 8 8 8 4 4 4 2 1 1 1 1 1 1 1 1 1 2 3 4 5 6 6 6 7 7 6 5 4 4 4 4 4 3
3 2 3 3 2 3 3 4 5 6 8 9 7 8 4 3 3 2 1 0 1 1 1 1 1 1 1 1 2 3 4 5 6 6 7 8 7 7 6 6 5 4 4 4
4 4 2 2 4 4 5 6 5 6 6 6 3 6 4 1 1 2 1 1 0 0 0 1 2 2 1 1 2 3 3 5 6 6 6 7 8 8 7 6 6 5 4 4
5 4 2 2 4 4 6 7 6 5 6 5 4 6 3 2 1 2 2 1 1 0 1 1 1 1 1 0 1 2 4 4 5 6 6 6 6 6 6 6 5 6 5 5
4 3 1 1 2 4 5 6 6 7 8 8 5 4 4 4 4 2 2 1 0 0 1 1 1 1 1 0 1 2 3 4 5 5 5 5 5 5 5 6 5 5 5 4
4 5 2 2 3 2 4 4 5 6 6 7 7 7 5 6 5 3 2 1 0 1 1 1 1 1 1 1 1 2 3 4 4 5 5 4 5 5 5 4 5 5 5 5
4 5 4 4 5 5 4 5 6 6 7 7 8 4 1 3 3 3 3 2 1 1 1 1 1 1 1 1 1 2 2 3 3 4 5 5 5 5 5 4 5 5 5 5
3 5 6 5 3 4 6 7 8 8 8 8 9 6 0 2 3 3 3 2 2 2 1 1 1 1 1 1 2 1 2 2 3 3 4 5 5 5 5 5 5 4 5 5
2 4 5 5 5 4 4 5 6 7 8 10 10 6 1 3 4 4 4 3 3 3 3 2 1 1 1 2 2 2 1 2 2 3 4 5 5 5 5 5 5 5 5 5
4 6 8 8 5 4 6 6 7 9 10 11 12 11 7 6 6 5 5 4 4 4 3 2 2 2 2 2 2 2 2 2 2 2 4 4 5 5 5 5 5 5 5 6
4 7 8 8 7 7 9 10 10 12 13 13 13 13 11 8 7 6 5 4 4 4 4 3 3 3 2 2 3 3 2 2 2 3 4 4 4 5 5 5 5 5 4 5
4 6 7 8 7 8 11 12 12 12 12 13 14 14 9 7 6 6 5 5 5 4 4 4 4 3 3 3 4 3 3 3 3 4 4 4 4 5 5 5 5 4 4 4
4 5 6 8 5 8 10 10 11 10 10 11 13 11 7 7 7 7 6 5 5 5 5 5 5 5 5 4 4 4 4 3 4 4 4 4 5 5 5 5 4 4 4 4
7 7 5 6 6 9 3 1 4 8 10 9 10 9 7 7 6 6 6 5 6 5 5 5 5 5 5 5 4 4 4 4 4 4 4 4 5 5 5 5 4 5 4 4
8 7 5 5 8 9 6 4 4 6 8 6 8 8 6 4 5 6 5 5 5 5 5 5 6 5 4 4 4 4 4 4 4 4 4 5 5 5 5 5 5 5 5 4
5 7 7 7 8 7 3 1 2 5 7 3 4 5 5 4 6 5 4 5 5 5 4 4 4 4 4 3 3 3 3 4 4 4 5 5 5 5 6 6 5 5 5 5
6 6 10 11 9 7 2 1 2 6 4 2 4 5 5 6 6 5 4 4 4 4 4 3 3 3 3 3 3 3 3 4 4 4 4 4 4 5 5 5 5 5 5 5
8 7 8 8 9 7 3 3 5 5 5 5 5 5 5 5 5 4 4 4 3 3 3 3 2 2 3 3 3 3 3 3 3 3 3 3 4 4 4 5 5 5 5 5
7 7 5 7 6 4 4 5 5 5 6 6 5 5 5 6 5 5 5 5 4 3 3 3 3 2 3 3 3 3 3 4 3 3 3 3 3 3 4 5 5 5 5 5
7 5 7 8 9 8 8 7 7 7 7 7 7 6 6 6 6 5 5 5 4 4 4 3 3 3 3 3 3 3 3 3 3 3 3 3 3 3 4 4 4 4 5 5
8 6 8 10 9 8 8 8 7 6 7 7 7 6 6 6 6 6 5 5 5 4 4 3 4 4 4 4 3 3 3 3 3 3 4 4 3 3 3 4 3 5 4 4
10 10 10 9 8 7 7 7 8 8 8 7 7 7 6 6 6 6 6 5 5 5 4 4 4 4 4 4 3 3 3 4 3 3 3 3 3 3 3 3 3 2 3 3
Wind_Direction
182 198 202 209 230 246 233 233 238 253 249 247 242 253 257 245 238 239 234 228 225 225 221 211 205 207 202 201 201 197 198 192 188 188 194 191 192 191 186 188 189 184 196 192
189 209 229 225 215 222 232 239 247 250 228 254 252 262 260 251 235 238 244 240 236 237 228 209 207 206 207 203 204 199 199 196 195 196 199 198 195 198 189 185 187 190 195 198
217 199 191 199 207 228 242 250 254 262 265 239 254 258 238 223 219 226 239 242 242 241 248 231 215 215 212 209 206 202 200 198 198 196 196 191 188 192 186 188 194 203 206 208
219 191 202 210 222 237 246 258 254 251 254 254 250 269 242 213 210 223 235 233 240 262 271 283 256 224 218 214 207 204 200 200 196 193 195 197 200 199 202 196 189 198 205 213
207 199 215 226 242 242 260 266 251 252 259 261 251 259 248 212 223 225 231 236 256 279 295 323 313 233 216 210 203 206 202 200 195 194 192 199 206 209 204 199 195 201 203 213
241 223 245 258 258 230 219 230 233 236 247 251 251 251 253 224 233 216 223 1 358 355 9 38 53 63 77 161 183 194 202 203 200 197 198 204 208 209 206 205 206 206 207 213
220 203 204 235 223 196 224 249 247 236 233 247 237 248 246 170 202 237 245 247 8 13 22 30 40 56 62 110 193 199 198 205 204 205 208 211 213 212 213 214 214 214 215 217
231 218 186 233 255 248 233 246 259 268 267 270 240 243 221 163 210 227 206 182 142 5 357 22 26 36 43 94 212 211 202 206 205 208 213 214 214 215 220 221 222 219 220 222
246 229 157 266 272 251 231 236 265 272 274 269 246 232 228 207 218 213 184 146 120 359 358 357 351 351 0 330 262 234 212 205 207 208 210 207 212 217 221 223 222 222 223 224
275 258 227 219 211 239 263 236 236 250 264 263 258 251 236 207 218 217 210 206 274 317 352 4 353 331 323 310 274 235 213 206 205 207 207 203 209 213 214 217 221 222 224 224
265 253 234 220 235 248 222 223 236 249 258 268 272 261 267 228 216 228 233 235 254 270 317 344 335 317 314 327 287 235 218 216 210 209 209 206 208 213 215 214 221 223 222 220
248 260 255 247 256 279 255 246 243 254 254 255 270 270 180 230 238 248 254 262 264 262 270 283 305 305 307 334 318 272 231 222 222 220 212 206 208 208 214 216 221 223 221 222
226 245 251 232 207 204 229 238 248 261 261 255 259 263 188 242 264 267 263 256 258 262 265 264 286 288 299 306 302 286 268 244 229 221 216 212 209 211 217 221 219 218 220 220
258 245 252 265 288 276 257 252 251 252 256 258 259 270 269 267 270 274 270 259 261 269 268 271 282 281 297 299 297 294 292 276 246 229 222 218 215 215 220 223 222 223 224 223
240 252 254 268 277 272 269 263 250 249 258 264 269 270 277 276 270 270 264 255 260 267 271 271 277 285 283 296 302 299 289 277 257 241 232 225 219 216 217 220 219 221 226 231
238 250 255 258 260 264 268 263 254 251 255 258 264 268 275 278 271 264 259 250 254 264 269 274 278 282 282 290 290 285 284 273 265 251 243 229 222 218 217 216 216 218 219 228
222 236 252 260 262 273 264 256 244 241 245 252 259 267 268 267 264 264 260 251 259 273 280 277 277 278 281 276 278 279 280 272 266 260 253 238 226 220 217 213 210 215 220 225
228 234 247 263 259 253 273 329 254 253 257 255 262 271 269 273 277 272 261 259 273 286 289 287 285 282 281 279 275 274 271 264 260 261 258 251 231 223 219 216 214 221 226 227
227 225 234 245 257 269 265 249 243 256 267 262 262 269 266 272 277 269 260 267 283 292 295 296 291 285 281 280 272 265 265 263 257 256 257 254 240 225 223 221 220 223 227 229
201 219 232 239 255 264 275 178 262 268 262 261 274 276 258 253 267 279 281 283 289 296 302 301 294 288 282 283 274 261 262 263 267 270 265 260 248 228 225 226 224 225 228 230
199 212 228 241 253 263 272 155 213 249 297 326 287 282 256 259 289 314 305 290 293 297 302 300 293 286 285 280 268 262 268 275 281 281 277 267 256 237 227 223 220 220 227 235
222 223 228 236 246 252 152 182 238 293 328 303 290 282 268 280 297 300 295 286 283 285 290 290 286 294 295 281 272 274 280 291 291 283 276 267 259 243 225 219 221 223 223 229
231 238 246 240 255 289 223 243 276 295 293 293 288 287 277 277 281 281 280 279 274 272 273 274 273 290 297 293 288 290 297 295 287 278 278 272 262 249 230 221 217 221 224 225
237 248 249 256 259 266 259 257 268 277 283 288 283 278 273 274 275 274 275 278 276 271 271 274 273 279 288 293 288 289 291 284 279 279 275 267 255 251 238 226 224 222 225 227
246 228 243 255 264 269 257 254 264 275 283 284 280 270 269 269 269 269 271 272 273 273 271 268 267 271 279 283 286 289 281 273 274 272 269 265 255 252 251 237 235 235 237 240
231 229 238 254 252 257 268 270 267 267 273 273 272 272 266 257 257 262 267 268 267 267 266 267 269 272 277 279 284 282 271 264 262 267 270 266 255 245 245 243 231 217 238 262
Height
1511 1510 1511 1511 1511 1511 1512 1514 1515 1514 1514 1516 1516 1516 1516 1518 1519 1519 1520 1520 1521 1523 1524 1525 1526 1527 1529 1530 1531 1532 1534 1535 1536 1537 1537 1538 1539 1540 1540 1541 1541 1541 1541 1542
1510 1511 1511 1511 1512 1513 1513 1514 1514 1514 1514 1515 1515 1515 1514 1516 1517 1518 1518 1518 1519 1521 1522 1523 1524 1525 1526 1527 1529 1530 1531 1532 1534 1535 1536 1537 1538 1539 1539 1540 1540 1540 1540 1541
1509 1511 1512 1512 1513 1514 1513 1514 1513 1515 1514 1513 1514 1514 1512 1513 1515 1516 1517 1518 1518 1519 1520 1521 1522 1523 1524 1525 1526 1527 1529 1530 1531 1532 1534 1535 1536 1537 1538 1538 1538 1539 1539 1540
1509 1511 1512 1512 1513 1512 1513 1511 1513 1514 1514 1513 1513 1515 1508 1509 1512 1514 1515 1516 1517 1518 1519 1520 1520 1521 1521 1522 1523 1525 1526 1527 1529 1530 1531 1533 1534 1535 1535 1536 1537 1537 1538 1538
1509 1510 1511 1512 1511 1511 1511 1512 1512 1511 1511 1512 1509 1512 1507 1506 1510 1512 1514 1515 1516 1517 1518 1518 1518 1519 1519 1520 1521 1522 1523 1525 1526 1527 1528 1530 1532 1533 1534 1535 1535 1536 1536 1537
1508 1511 1511 1510 1511 1511 1512 1512 1510 1509 1508 1515 1509 1510 1509 1506 1508 1510 1512 1514 1515 1516 1517 1517 1517 1517 1517 1518 1518 1519 1520 1522 1523 1524 1526 1527 1529 1530 1531 1532 1533 1534 1534 1535
1509 1509 1510 1511 1510 1511 1510 1511 1515 1515 1514 1511 1506 1509 1509 1506 1508 1510 1512 1514 1515 1515 1516 1516 1516 1515 1515 1516 1516 1517 1517 1519 1520 1522 1523 1524 1526 1527 1529 1530 1531 1532 1532 1532
1512 1511 1509 1510 1509 1509 1508 1509 1517 1522 1516 1508 1507 1508 1505 1507 1509 1511 1512 1513 1514 1514 1514 1514 1514 1514 1514 1514 1514 1514 1515 1516 1517 1518 1520 1521 1523 1524 1526 1527 1528 1529 1529 1530
1510 1511 1509 1511 1510 1508 1508 1508 1507 1510 1510 1513 1505 1504 1505 1506 1507 1509 1510 1512 1513 1513 1513 1513 1512 1512 1512 1512 1512 1512 1512 1513 1514 1516 1517 1518 1519 1521 1522 1524 1525 1525 1526 1527
1509 1512 1509 1510 1510 1510 1507 1506 1508 1512 1518 1515 1506 1503 1501 1502 1504 1506 1508 1510 1511 1512 1512 1511 1511 1511 1511 1511 1510 1510 1510 1510 1511 1513 1514 1515 1516 1518 1519 1520 1521 1522 1523 1524
1511 1511 1510 1509 1508 1507 1509 1509 1508 1508 1509 1513 1511 1503 1495 1499 1502 1504 1506 1508 1509 1510 1510 1510 1510 1509 1509 1509 1508 1508 1508 1508 1509 1510 1512 1512 1513 1515 1516 1516 1517 1518 1519 1520
1511 1510 1509 1508 1508 1509 1507 1505 1506 1511 1510 1508 1507 1504 1496 1499 1501 1503 1505 1507 1508 1509 1509 1509 1508 1508 1507 1507 1506 1506 1506 1506 1507 1508 1509 1509 1510 1511 1512 1513 1514 1515 1516 1516
1512 1511 1512 1510 1511 1510 1508 1508 1507 1506 1507 1506 1507 1503 1497 1499 1501 1503 1505 1506 1507 1507 1507 1507 1507 1506 1505 1505 1504 1504 1504 1504 1504 1505 1505 1506 1507 1508 1509 1510 1511 1511 1512 1513
1513 1508 1510 1512 1506 1506 1508 1510 1509 1508 1506 1503 1500 1498 1496 1498 1500 1502 1504 1504 1505 1505 1505 1505 1505 1504 1503 1503 1503 1502 1502 1502 1501 1502 1502 1503 1504 1504 1505 1506 1507 1508 1509 1510
1511 1508 1506 1507 1507 1508 1508 1507 1507 1506 1502 1501 1497 1496 1495 1496 1499 1501 1502 1503 1503 1503 1503 1503 1502 1502 1501 1501 1500 1499 1499 1499 1499 1499 1500 1500 1501 1501 1502 1503 1503 1504 1505 1506
1509 1508 1507 1507 1507 1507 1506 1503 1503 1502 1501 1499 1497 1496 1495 1496 1498 1499 1500 1501 1501 1501 1501 1501 1500 1499 1498 1498 1497 1497 1497 1497 1497 1497 1497 1497 1498 1498 1498 1499 1500 1501 1501 1502
1508 1507 1508 1504 1505 1506 1502 1496 1497 1497 1496 1495 1494 1492 1493 1494 1496 1497 1498 1498 1499 1499 1498 1498 1497 1497 1496 1495 1495 1494 1493 1494 1494 1494 1494 1494 1494 1495 1495 1496 1497 1497 1498 1499
1507 1506 1506 1504 1506 1507 1494 1493 1494 1494 1493 1492 1491 1492 1493 1494 1494 1495 1496 1496 1496 1496 1496 1495 1495 1494 1494 1493 1492 1491 1491 1491 1491 1490 1490 1491 1491 1491 1492 1492 1493 1493 1495 1495
1505 1506 1505 1503 1501 1495 1493 1493 1494 1494 1492 1491 1490 1491 1492 1492 1492 1492 1493 1494 1494 1494 1493 1493 1492 1491 1490 1490 1489 1488 1488 1488 1488 1487 1487 1487 1487 1487 1488 1488 1489 1490 1491 1491
1505 1504 1503 1502 1502 1497 1490 1491 1493 1494 1490 1489 1489 1490 1490 1491 1489 1488 1490 1491 1491 1491 1491 1490 1489 1488 1487 1487 1486 1486 1485 1485 1484 1484 1484 1484 1484 1484 1484 1485 1485 1486 1487 1487
1501 1502 1501 1499 1497 1489 1489 1492 1494 1495 1488 1488 1488 1489 1489 1489 1488 1489 1488 1488 1488 1488 1488 1487 1486 1486 1485 1484 1484 1483 1482 1482 1481 1481 1480 1480 1480 1480 1480 1481 1481 1482 1483 1483
1493 1495 1495 1494 1495 1491 1489 1491 1491 1489 1488 1488 1488 1488 1487 1487 1487 1487 1486 1486 1486 1485 1485 1485 1484 1483 1483 1482 1481 1480 1479 1479 1478 1477 1477 1476 1476 1476 1477 1477 1477 1478 1479 1479
1490 1489 1487 1488 1487 1486 1487 1488 1488 1488 1488 1487 1487 1486 1486 1485 1485 1484 1484 1483 1483 1482 1482 1482 1481 1480 1479 1479 1478 1477 1477 1476 1475 1474 1474 1473 1473 1473 1473 1474 1474 1475 1475 1475
1488 1490 1489 1486 1483 1485 1485 1485 1486 1486 1486 1485 1485 1484 1484 1483 1482 1482 1481 1480 1480 1479 1479 1479 1478 1477 1476 1476 1475 1474 1474 1473 1472 1471 1471 1470 1470 1470 1470 1470 1470 1471 1471 1471
1484 1487 1485 1482 1482 1483 1482 1482 1483 1483 1482 1481 1481 1481 1480 1479 1479 1479 1478 1477 1477 1476 1476 1475 1475 1474 1474 1473 1472 1471 1471 1470 1470 1469 1468 1467 1467 1466 1466 1466 1466 1466 1467 1467
1480 1481 1480 1477 1477 1478 1478 1478 1479 1479 1478 1478 1477 1476 1476 1476 1476 1475 1475 1474 1474 1473 1473 1472 1472 1472 1471 1470 1469 1468 1468 1467 1467 1466 1465 1464 1463 1463 1463 1462 1463 1462 1463 1463